Regional Weather Roundup
Issued by NWS

Home | Current Version | Previous Version | Text Only | Print | Product List | Glossary On
Versions: 1 2 3 4 5 6 7 8 9 10 11 12 13 14 15 16 17 18 19 20 21 22 23 24 25 26 27 28
000
ASUS45 KREV 300510
RWRNV
NEVADA REGIONAL WEATHER ROUNDUP
NATIONAL WEATHER SERVICE RENO NV
1000 PM PDT FRI APR 29 2016

NOTE: "FAIR" INDICATES FEW OR NO CLOUDS BELOW 12,000 FEET WITH NO
SIGNIFICANT WEATHER AND/OR OBSTRUCTIONS TO VISIBILITY.

NVZ001-003-004-300600-
WESTERN NEVADA

CITY           SKY/WX    TMP DP  RH WIND       PRES   REMARKS
RENO           CLOUDY    47  35  63 NW14G22   30.01R
CARSON CITY    CLOUDY    43  39  87 CALM      30.00R
MINDEN         MOCLDY    39  39 100 S12       30.01S
SLIDE MTN        N/A     25  23  93 N23         N/A
PYRAMID LAKE     N/A     48 N/A N/A W8          N/A
FALLON         CLOUDY    49  35  58 N13       29.95R
LOVELOCK       MOCLDY    50  31  48 N14G22    29.96R
HAWTHORNE      MOCLDY    45  41  87 W9        29.97R
$$

NVZ002-CAZ072-073-300600-
NORTHERN AND CENTRAL SIERRA

CITY           SKY/WX    TMP DP  RH WIND       PRES   REMARKS
S. LAKE TAHOE  FLURRIES  33  31  92 SE3       30.01S
TRUCKEE        LGT SNOW  32  32 100 N6        30.04R
SQUAW VLY 8000   N/A     30  30 100 VRB12       N/A
SUSANVILLE     MOCLDY    46  32  57 W3        30.06R
BLUE CANYON    CLOUDY    38  34  85 E7        29.99F
MAMMOTH LAKES  FAIR      41  24  51 NW12      29.94R
BRIDGEPORT     CLOUDY    38  29  70 VRB3      29.96R
$$

NVZ030-031-036-300600-
NORTHERN NEVADA

CITY           SKY/WX    TMP DP  RH WIND       PRES   REMARKS
ELKO           LGT RAIN  43  38  82 NE10      29.91R
WINNEMUCCA     MOCLDY    42  38  85 NW8       29.96R
WENDOVER       CLOUDY    46  37  71 W10       29.91R
$$

NVZ035-037-300600-
CENTRAL NEVADA

CITY           SKY/WX    TMP DP  RH WIND       PRES   REMARKS
ELY            RAIN      36  36 100 W6        29.91R FOG
EUREKA           N/A     38  33  82 NE5       29.92S
$$

NVZ013-014-300600-
SOUTH CENTRAL NEVADA

CITY           SKY/WX    TMP DP  RH WIND       PRES   REMARKS
TONOPAH        LGT RAIN  43  38  82 N6        29.91S
$$

NVZ017-020-022-300600-
SOUTHERN NEVADA

CITY           SKY/WX    TMP DP  RH WIND       PRES   REMARKS
LAS VEGAS      PTCLDY    70  31  23 SW3       29.66F
N. LAS VEGAS   MOCLDY    67  39  35 N7        29.69F
NELLIS AFB     MOCLDY    69  39  33 N6        29.68S
HENDERSON      PTCLDY    65  36  34 S8        29.73S
MERCURY        CLOUDY    64  32  30 NE10      29.76R
$$




USA.gov is the U.S. government's official web portal to all federal, state and local government web resources and services.